{"data":{"norad_id":59912,"intl_designator":"2024-102D","name":"TIANQI-28","alt_names":[],"object_type":"PAYLOAD","status":"ACTIVE","operator":null,"country":"PRC","launch_date":"2024-05-29","launch_site_code":"YSLA","launch_vehicle":null,"mission":null,"orbit_class":"UNKNOWN","rcs_meters":null,"size_class":null,"mass_kg":null,"dimensions":null,"purposes":[],"wikipedia_slug":null,"has_3d_model":false,"image_url":null,"decayed_at":null,"tle_current":{"epoch":"2026-09-22T21:14:48.032160Z","epoch_age_seconds":69446,"freshness":"FRESH","line1":"1 59912U 24102D   26265.88527815  .00000019  00000+0  10097-3 0  9999","line2":"2 59912  44.9781 186.9391 0012809 348.7006  11.3538 13.99192740118585","mean_motion":13.9919274,"eccentricity":0.0012809,"inclination_deg":44.9781,"raan_deg":186.9391,"arg_perigee_deg":348.7006,"mean_anomaly_deg":11.3538,"bstar":0.00010097,"rev_number":11858,"period_min":102.91648597319,"perigee_km":887.27368434045,"apogee_km":905.91008479694,"semimajor_km":7274.7288845687,"source":"CELESTRAK","updated_at":"2026-09-23T09:00:19.772456Z"}}}